{"data":{"norad_id":53432,"epoch":"2026-09-19T16:00:09.727200Z","epoch_age_seconds":147401,"freshness":"FRESH","line1":"1 53432U 22097AW  26262.66677925  .00000211  00000+0  17391-4 0  9991","line2":"2 53432  53.1580 297.5253 0001254  82.8328 277.2817 15.34390154228288","mean_motion":15.34390154,"eccentricity":0.0001254,"inclination_deg":53.158,"raan_deg":297.5253,"arg_perigee_deg":82.8328,"mean_anomaly_deg":277.2817,"bstar":1.7391e-5,"rev_number":22828,"period_min":93.84836029129,"perigee_km":461.87465971465,"apogee_km":463.59034978644,"semimajor_km":6840.8695047505,"source":"CELESTRAK","updated_at":"2026-09-20T09:00:40.231792Z"}}